Year,Month,Day,Hour,Minute,Value (Times are PST for temperature in C)
2003,01,24,00,00,9.60
2003,01,24,00,01,9.60
2003,01,24,00,02,9.60
2003,01,24,00,03,9.60
2003,01,24,00,04,9.60
2003,01,24,00,05,9.70
2003,01,24,00,06,9.70
2003,01,24,00,07,9.70
2003,01,24,00,08,9.70
2003,01,24,00,09,9.70
2003,01,24,00,10,9.70
2003,01,24,00,11,9.70
2003,01,24,00,12,9.70
2003,01,24,00,13,9.70
2003,01,24,00,14,9.70
2003,01,24,00,15,9.70
2003,01,24,00,16,9.70
2003,01,24,00,17,9.70
2003,01,24,00,18,9.70
2003,01,24,00,19,9.70
2003,01,24,00,20,9.70
2003,01,24,00,21,9.70
2003,01,24,00,22,9.70
2003,01,24,00,23,9.70
2003,01,24,00,24,9.70
2003,01,24,00,25,9.70
2003,01,24,00,26,9.60
2003,01,24,00,27,9.60
2003,01,24,00,28,9.60
2003,01,24,00,29,9.60
2003,01,24,00,30,9.60
2003,01,24,00,31,9.50
2003,01,24,00,32,9.50
2003,01,24,00,33,9.50
2003,01,24,00,34,9.50
2003,01,24,00,35,9.40
2003,01,24,00,36,9.40
2003,01,24,00,37,9.40
2003,01,24,00,38,9.40
2003,01,24,00,39,9.30
2003,01,24,00,40,9.30
2003,01,24,00,41,9.30
2003,01,24,00,42,9.30
2003,01,24,00,43,9.20
2003,01,24,00,44,9.20
2003,01,24,00,45,9.20
2003,01,24,00,46,9.20
2003,01,24,00,47,9.20
2003,01,24,00,48,9.20
2003,01,24,00,49,9.20
2003,01,24,00,50,9.10
2003,01,24,00,51,9.10
2003,01,24,00,52,9.00
2003,01,24,00,53,9.00
2003,01,24,00,54,9.00
2003,01,24,00,55,9.00
2003,01,24,00,56,8.90
2003,01,24,00,57,8.90
2003,01,24,00,58,8.90
2003,01,24,00,59,8.90
2003,01,24,01,00,8.80
2003,01,24,01,01,8.80
2003,01,24,01,02,8.70
2003,01,24,01,03,8.70
2003,01,24,01,04,8.70
2003,01,24,01,05,8.70
2003,01,24,01,06,8.70
2003,01,24,01,07,8.70
2003,01,24,01,08,8.70
2003,01,24,01,09,8.70
2003,01,24,01,10,8.60
2003,01,24,01,11,8.60
2003,01,24,01,12,8.60
2003,01,24,01,13,8.60
2003,01,24,01,14,8.60
2003,01,24,01,15,8.60
2003,01,24,01,16,8.60
2003,01,24,01,17,8.60
2003,01,24,01,18,8.60
2003,01,24,01,19,8.60
2003,01,24,01,20,8.60
2003,01,24,01,21,8.50
2003,01,24,01,22,8.50
2003,01,24,01,23,8.60
2003,01,24,01,24,8.50
2003,01,24,01,25,8.60
2003,01,24,01,26,8.60
2003,01,24,01,27,8.60
2003,01,24,01,28,8.60
2003,01,24,01,29,8.60
2003,01,24,01,30,8.60
2003,01,24,01,31,8.60
2003,01,24,01,32,8.60
2003,01,24,01,33,8.60
2003,01,24,01,34,8.60
2003,01,24,01,35,8.60
2003,01,24,01,36,8.60
2003,01,24,01,37,8.60
2003,01,24,01,38,8.60
2003,01,24,01,39,8.60
2003,01,24,01,40,8.60
2003,01,24,01,41,8.70
2003,01,24,01,42,8.70
2003,01,24,01,43,8.70
2003,01,24,01,44,8.70
2003,01,24,01,45,8.70
2003,01,24,01,46,8.70
2003,01,24,01,47,8.70
2003,01,24,01,48,8.70
2003,01,24,01,49,8.70
2003,01,24,01,50,8.80
2003,01,24,01,51,8.80
2003,01,24,01,52,8.80
2003,01,24,01,53,8.80
2003,01,24,01,54,8.80
2003,01,24,01,55,8.80
2003,01,24,01,56,8.80
2003,01,24,01,57,8.80
2003,01,24,01,58,8.80
2003,01,24,01,59,8.80
2003,01,24,02,00,8.80
2003,01,24,02,01,8.80
2003,01,24,02,02,8.90
2003,01,24,02,03,8.90
2003,01,24,02,04,8.90
2003,01,24,02,05,8.90
2003,01,24,02,06,8.90
2003,01,24,02,07,8.90
2003,01,24,02,08,8.90
2003,01,24,02,09,8.90
2003,01,24,02,10,8.90
2003,01,24,02,11,9.00
2003,01,24,02,12,9.00
2003,01,24,02,13,9.00
2003,01,24,02,14,9.00
2003,01,24,02,15,9.00
2003,01,24,02,16,9.00
2003,01,24,02,17,9.00
2003,01,24,02,18,8.90
2003,01,24,02,19,8.90
2003,01,24,02,20,8.90
2003,01,24,02,21,8.90
2003,01,24,02,22,8.90
2003,01,24,02,23,8.80
2003,01,24,02,24,8.80
2003,01,24,02,25,8.80
2003,01,24,02,26,8.80
2003,01,24,02,27,8.80
2003,01,24,02,28,8.80
2003,01,24,02,29,8.80
2003,01,24,02,30,8.70
2003,01,24,02,31,8.70
2003,01,24,02,32,8.70
2003,01,24,02,33,8.70
2003,01,24,02,34,8.70
2003,01,24,02,35,8.70
2003,01,24,02,36,8.70
2003,01,24,02,37,8.70
2003,01,24,02,38,8.70
2003,01,24,02,39,8.70
2003,01,24,02,40,8.70
2003,01,24,02,41,8.70
2003,01,24,02,42,8.70
2003,01,24,02,43,8.70
2003,01,24,02,44,8.70
2003,01,24,02,45,8.70
2003,01,24,02,46,8.70
2003,01,24,02,47,8.70
2003,01,24,02,48,8.70
2003,01,24,02,49,8.70
2003,01,24,02,50,8.70
2003,01,24,02,51,8.70
2003,01,24,02,52,8.70
2003,01,24,02,53,8.70
2003,01,24,02,54,8.70
2003,01,24,02,55,8.70
2003,01,24,02,56,8.70
2003,01,24,02,57,8.70
2003,01,24,02,58,8.60
2003,01,24,02,59,8.60
2003,01,24,03,00,8.60
2003,01,24,03,01,8.60
2003,01,24,03,02,8.60
2003,01,24,03,03,8.60
2003,01,24,03,04,8.60
2003,01,24,03,05,8.60
2003,01,24,03,06,8.50
2003,01,24,03,07,8.50
2003,01,24,03,08,8.50
2003,01,24,03,09,8.50
2003,01,24,03,10,8.50
2003,01,24,03,11,8.50
2003,01,24,03,12,8.50
2003,01,24,03,13,8.50
2003,01,24,03,14,8.50
2003,01,24,03,15,8.50
2003,01,24,03,16,8.50
2003,01,24,03,17,8.50
2003,01,24,03,18,8.50
2003,01,24,03,19,8.50
2003,01,24,03,20,8.50
2003,01,24,03,21,8.60
2003,01,24,03,22,8.60
2003,01,24,03,23,8.60
2003,01,24,03,24,8.60
2003,01,24,03,25,8.60
2003,01,24,03,26,8.60
2003,01,24,03,27,8.60
2003,01,24,03,28,8.60
2003,01,24,03,29,8.60
2003,01,24,03,30,8.70
2003,01,24,03,31,8.70
2003,01,24,03,32,8.70
2003,01,24,03,33,8.70
2003,01,24,03,34,8.70
2003,01,24,03,35,8.70
2003,01,24,03,36,8.70
2003,01,24,03,37,8.70
2003,01,24,03,38,8.70
2003,01,24,03,39,8.70
2003,01,24,03,40,8.70
2003,01,24,03,41,8.70
2003,01,24,03,42,8.70
2003,01,24,03,43,8.70
2003,01,24,03,44,8.70
2003,01,24,03,45,8.70
2003,01,24,03,46,8.70
2003,01,24,03,47,8.70
2003,01,24,03,48,8.70
2003,01,24,03,49,8.70
2003,01,24,03,50,8.70
2003,01,24,03,51,8.70
2003,01,24,03,52,8.70
2003,01,24,03,53,8.70
2003,01,24,03,54,8.70
2003,01,24,03,55,8.70
2003,01,24,03,56,8.70
2003,01,24,03,57,8.70
2003,01,24,03,58,8.70
2003,01,24,03,59,8.70
2003,01,24,04,00,8.70
2003,01,24,04,01,8.70
2003,01,24,04,02,8.70
2003,01,24,04,03,8.70
2003,01,24,04,04,8.70
2003,01,24,04,05,8.70
2003,01,24,04,06,8.70
2003,01,24,04,07,8.70
2003,01,24,04,08,8.70
2003,01,24,04,09,8.70
2003,01,24,04,10,8.70
2003,01,24,04,11,8.70
2003,01,24,04,12,8.70
2003,01,24,04,13,8.70
2003,01,24,04,14,8.70
2003,01,24,04,15,8.60
2003,01,24,04,16,8.60
2003,01,24,04,17,8.60
2003,01,24,04,18,8.70
2003,01,24,04,19,8.70
2003,01,24,04,20,8.70
2003,01,24,04,21,8.70
2003,01,24,04,22,8.70
2003,01,24,04,23,8.70
2003,01,24,04,24,8.70
2003,01,24,04,25,8.70
2003,01,24,04,26,8.70
2003,01,24,04,27,8.70
2003,01,24,04,28,8.70
2003,01,24,04,29,8.70
2003,01,24,04,30,8.70
2003,01,24,04,31,8.60
2003,01,24,04,32,8.60
2003,01,24,04,33,8.60
2003,01,24,04,34,8.60
2003,01,24,04,35,8.60
2003,01,24,04,36,8.60
2003,01,24,04,37,8.60
2003,01,24,04,38,8.60
2003,01,24,04,39,8.70
2003,01,24,04,40,8.70
2003,01,24,04,41,8.70
2003,01,24,04,42,8.70
2003,01,24,04,43,8.70
2003,01,24,04,44,8.70
2003,01,24,04,45,8.70
2003,01,24,04,46,8.70
2003,01,24,04,47,8.70
2003,01,24,04,48,8.70
2003,01,24,04,49,8.70
2003,01,24,04,50,8.70
2003,01,24,04,51,8.70
2003,01,24,04,52,8.70
2003,01,24,04,53,8.70
2003,01,24,04,54,8.70
2003,01,24,04,55,8.70
2003,01,24,04,56,8.70
2003,01,24,04,57,8.70
2003,01,24,04,58,8.70
2003,01,24,04,59,8.70
2003,01,24,05,00,8.80
2003,01,24,05,01,8.80
2003,01,24,05,02,8.80
2003,01,24,05,03,8.80
2003,01,24,05,04,8.80
2003,01,24,05,05,8.80
2003,01,24,05,06,8.80
2003,01,24,05,07,8.80
2003,01,24,05,08,8.80
2003,01,24,05,09,8.80
2003,01,24,05,10,8.80
2003,01,24,05,11,8.80
2003,01,24,05,12,8.80
2003,01,24,05,13,8.80
2003,01,24,05,14,8.80
2003,01,24,05,15,8.80
2003,01,24,05,16,8.70
2003,01,24,05,17,8.70
2003,01,24,05,18,8.70
2003,01,24,05,19,8.70
2003,01,24,05,20,8.70
2003,01,24,05,21,8.70
2003,01,24,05,22,8.70
2003,01,24,05,23,8.70
2003,01,24,05,24,8.70
2003,01,24,05,25,8.70
2003,01,24,05,26,8.70
2003,01,24,05,27,8.70
2003,01,24,05,28,8.60
2003,01,24,05,29,8.60
2003,01,24,05,30,8.60
2003,01,24,05,31,8.60
2003,01,24,05,32,8.60
2003,01,24,05,33,8.60
2003,01,24,05,34,8.60
2003,01,24,05,35,8.60
2003,01,24,05,36,8.60
2003,01,24,05,37,8.60
2003,01,24,05,38,8.50
2003,01,24,05,39,8.60
2003,01,24,05,40,8.60
2003,01,24,05,41,8.60
2003,01,24,05,42,8.60
2003,01,24,05,43,8.60
2003,01,24,05,44,8.50
2003,01,24,05,45,8.50
2003,01,24,05,46,8.50
2003,01,24,05,47,8.50
2003,01,24,05,48,8.50
2003,01,24,05,49,8.40
2003,01,24,05,50,8.40
2003,01,24,05,51,8.40
2003,01,24,05,52,8.40
2003,01,24,05,53,8.40
2003,01,24,05,54,8.40
2003,01,24,05,55,8.40
2003,01,24,05,56,8.30
2003,01,24,05,57,8.30
2003,01,24,05,58,8.30
2003,01,24,05,59,8.30
2003,01,24,06,00,8.30
2003,01,24,06,01,8.20
2003,01,24,06,02,8.20
2003,01,24,06,03,8.20
2003,01,24,06,04,8.20
2003,01,24,06,05,8.20
2003,01,24,06,06,8.20
2003,01,24,06,07,8.20
2003,01,24,06,08,8.20
2003,01,24,06,09,8.20
2003,01,24,06,10,8.20
2003,01,24,06,11,8.20
2003,01,24,06,12,8.20
2003,01,24,06,13,8.20
2003,01,24,06,14,8.20
2003,01,24,06,15,8.20
2003,01,24,06,16,8.20
2003,01,24,06,17,8.20
2003,01,24,06,18,8.20
2003,01,24,06,19,8.20
2003,01,24,06,20,8.20
2003,01,24,06,21,8.20
2003,01,24,06,22,8.20
2003,01,24,06,23,8.20
2003,01,24,06,24,8.20
2003,01,24,06,25,8.30
2003,01,24,06,26,8.30
2003,01,24,06,27,8.30
2003,01,24,06,28,8.30
2003,01,24,06,29,8.30
2003,01,24,06,30,8.30
2003,01,24,06,31,8.30
2003,01,24,06,32,8.30
2003,01,24,06,33,8.40
2003,01,24,06,34,8.40
2003,01,24,06,35,8.40
2003,01,24,06,36,8.40
2003,01,24,06,37,8.40
2003,01,24,06,38,8.40
2003,01,24,06,39,8.40
2003,01,24,06,40,8.40
2003,01,24,06,41,8.40
2003,01,24,06,42,8.40
2003,01,24,06,43,8.40
2003,01,24,06,44,8.40
2003,01,24,06,45,8.40
2003,01,24,06,46,8.40
2003,01,24,06,47,8.40
2003,01,24,06,48,8.40
2003,01,24,06,49,8.40
2003,01,24,06,50,8.40
2003,01,24,06,51,8.40
2003,01,24,06,52,8.40
2003,01,24,06,53,8.40
2003,01,24,06,54,8.40
2003,01,24,06,55,8.40
2003,01,24,06,56,8.40
2003,01,24,06,57,8.40
2003,01,24,06,58,8.40
2003,01,24,06,59,8.40
2003,01,24,07,00,8.40
2003,01,24,07,01,8.40
2003,01,24,07,02,8.40
2003,01,24,07,03,8.40
2003,01,24,07,04,8.40
2003,01,24,07,05,8.40
2003,01,24,07,06,8.40
2003,01,24,07,07,8.40
2003,01,24,07,08,8.40
2003,01,24,07,09,8.40
2003,01,24,07,10,8.40
2003,01,24,07,11,8.40
2003,01,24,07,12,8.40
2003,01,24,07,13,8.40
2003,01,24,07,14,8.40
2003,01,24,07,15,8.40
2003,01,24,07,16,8.40
2003,01,24,07,17,8.40
2003,01,24,07,18,8.40
2003,01,24,07,19,8.40
2003,01,24,07,20,8.40
2003,01,24,07,21,8.30
2003,01,24,07,22,8.30
2003,01,24,07,23,8.30
2003,01,24,07,24,8.30
2003,01,24,07,25,8.30
2003,01,24,07,26,8.30
2003,01,24,07,27,8.30
2003,01,24,07,28,8.20
2003,01,24,07,29,8.20
2003,01,24,07,30,8.20
2003,01,24,07,31,8.20
2003,01,24,07,32,8.20
2003,01,24,07,33,8.20
2003,01,24,07,34,8.20
2003,01,24,07,35,8.20
2003,01,24,07,36,8.20
2003,01,24,07,37,8.20
2003,01,24,07,38,8.20
2003,01,24,07,39,8.20
2003,01,24,07,40,8.20
2003,01,24,07,41,8.20
2003,01,24,07,42,8.20
2003,01,24,07,43,8.20
2003,01,24,07,44,8.20
2003,01,24,07,45,8.20
2003,01,24,07,46,8.20
2003,01,24,07,47,8.20
2003,01,24,07,48,8.20
2003,01,24,07,49,8.20
2003,01,24,07,50,8.20
2003,01,24,07,51,8.20
2003,01,24,07,52,8.20
2003,01,24,07,53,8.30
2003,01,24,07,54,8.30
2003,01,24,07,55,8.30
2003,01,24,07,56,8.30
2003,01,24,07,57,8.30
2003,01,24,07,58,8.30
2003,01,24,07,59,8.30
2003,01,24,08,00,8.30
2003,01,24,08,01,8.30
2003,01,24,08,02,8.30
2003,01,24,08,03,8.30
2003,01,24,08,04,8.30
2003,01,24,08,05,8.30
2003,01,24,08,06,8.30
2003,01,24,08,07,8.30
2003,01,24,08,08,8.40
2003,01,24,08,09,8.40
2003,01,24,08,10,8.40
2003,01,24,08,11,8.40
2003,01,24,08,12,8.40
2003,01,24,08,13,8.40
2003,01,24,08,14,8.40
2003,01,24,08,15,8.40
2003,01,24,08,16,8.40
2003,01,24,08,17,8.40
2003,01,24,08,18,8.40
2003,01,24,08,19,8.50
2003,01,24,08,20,8.50
2003,01,24,08,21,8.50
2003,01,24,08,22,8.50
2003,01,24,08,23,8.50
2003,01,24,08,24,8.50
2003,01,24,08,25,8.50
2003,01,24,08,26,8.50
2003,01,24,08,27,8.50
2003,01,24,08,28,8.50
2003,01,24,08,29,8.50
2003,01,24,08,30,8.50
2003,01,24,08,31,8.50
2003,01,24,08,32,8.50
2003,01,24,08,33,8.50
2003,01,24,08,34,8.50
2003,01,24,08,35,8.50
2003,01,24,08,36,8.50
2003,01,24,08,37,8.50
2003,01,24,08,38,8.50
2003,01,24,08,39,8.50
2003,01,24,08,40,8.50
2003,01,24,08,41,8.60
2003,01,24,08,42,8.60
2003,01,24,08,43,8.60
2003,01,24,08,44,8.60
2003,01,24,08,45,8.60
2003,01,24,08,46,8.60
2003,01,24,08,47,8.60
2003,01,24,08,48,8.60
2003,01,24,08,49,8.60
2003,01,24,08,50,8.60
2003,01,24,08,51,8.60
2003,01,24,08,52,8.60
2003,01,24,08,53,8.60
2003,01,24,08,54,8.60
2003,01,24,08,55,8.60
2003,01,24,08,56,8.60
2003,01,24,08,57,8.70
2003,01,24,08,58,8.70
2003,01,24,08,59,8.70
2003,01,24,09,00,8.70
2003,01,24,09,01,8.70
2003,01,24,09,02,8.70
2003,01,24,09,03,8.70
2003,01,24,09,04,8.70
2003,01,24,09,05,8.70
2003,01,24,09,06,8.70
2003,01,24,09,07,8.70
2003,01,24,09,08,8.70
2003,01,24,09,09,8.70
2003,01,24,09,10,8.70
2003,01,24,09,11,8.70
2003,01,24,09,12,8.70
2003,01,24,09,13,8.70
2003,01,24,09,14,8.70
2003,01,24,09,15,8.70
2003,01,24,09,16,8.70
2003,01,24,09,17,8.70
2003,01,24,09,18,8.70
2003,01,24,09,19,8.70
2003,01,24,09,20,8.70
2003,01,24,09,21,8.70
2003,01,24,09,22,8.70
2003,01,24,09,23,8.70
2003,01,24,09,24,8.70
2003,01,24,09,25,8.70
2003,01,24,09,26,8.70
2003,01,24,09,27,8.70
2003,01,24,09,28,8.70
2003,01,24,09,29,8.70
2003,01,24,09,30,8.70
2003,01,24,09,31,8.70
2003,01,24,09,32,8.70
2003,01,24,09,33,8.70
2003,01,24,09,34,8.70
2003,01,24,09,35,8.70
2003,01,24,09,36,8.70
2003,01,24,09,37,8.70
2003,01,24,09,38,8.70
2003,01,24,09,39,8.70
2003,01,24,09,40,8.70
2003,01,24,09,41,8.70
2003,01,24,09,42,8.70
2003,01,24,09,43,8.70
2003,01,24,09,44,8.70
2003,01,24,09,45,8.70
2003,01,24,09,46,8.70
2003,01,24,09,47,8.70
2003,01,24,09,48,8.70
2003,01,24,09,49,8.70
2003,01,24,09,50,8.70
2003,01,24,09,51,8.70
2003,01,24,09,52,8.70
2003,01,24,09,53,8.70
2003,01,24,09,54,8.70
2003,01,24,09,55,8.70
2003,01,24,09,56,8.70
2003,01,24,09,57,8.80
2003,01,24,09,58,8.80
2003,01,24,09,59,8.80
2003,01,24,10,00,8.80
2003,01,24,10,01,8.80
2003,01,24,10,02,8.80
2003,01,24,10,03,8.80
2003,01,24,10,04,8.80
2003,01,24,10,05,8.80
2003,01,24,10,06,8.80
2003,01,24,10,07,8.80
2003,01,24,10,08,8.90
2003,01,24,10,09,8.90
2003,01,24,10,10,8.90
2003,01,24,10,11,8.90
2003,01,24,10,12,9.00
2003,01,24,10,13,9.00
2003,01,24,10,14,9.00
2003,01,24,10,15,9.00
2003,01,24,10,16,9.10
2003,01,24,10,17,9.10
2003,01,24,10,18,9.10
2003,01,24,10,19,9.20
2003,01,24,10,20,9.20
2003,01,24,10,21,9.20
2003,01,24,10,22,9.20
2003,01,24,10,23,9.20
2003,01,24,10,24,9.20
2003,01,24,10,25,9.20
2003,01,24,10,26,9.30
2003,01,24,10,27,9.30
2003,01,24,10,28,9.20
2003,01,24,10,29,9.20
2003,01,24,10,30,9.20
2003,01,24,10,31,9.20
2003,01,24,10,32,9.30
2003,01,24,10,33,9.30
2003,01,24,10,34,9.30
2003,01,24,10,35,9.30
2003,01,24,10,36,9.40
2003,01,24,10,37,9.40
2003,01,24,10,38,9.40
2003,01,24,10,39,9.40
2003,01,24,10,40,9.40
2003,01,24,10,41,9.30
2003,01,24,10,42,9.30
2003,01,24,10,43,9.30
2003,01,24,10,44,9.30
2003,01,24,10,45,9.30
2003,01,24,10,46,9.30
2003,01,24,10,47,9.30
2003,01,24,10,48,9.30
2003,01,24,10,49,9.30
2003,01,24,10,50,9.20
2003,01,24,10,51,9.20
2003,01,24,10,52,9.20
2003,01,24,10,53,9.20
2003,01,24,10,54,9.30
2003,01,24,10,55,9.40
2003,01,24,10,56,9.40
2003,01,24,10,57,9.40
2003,01,24,10,58,9.40
2003,01,24,10,59,9.40
2003,01,24,11,00,9.40
2003,01,24,11,01,9.40
2003,01,24,11,02,9.40
2003,01,24,11,03,9.40
2003,01,24,11,04,9.40
2003,01,24,11,05,9.40
2003,01,24,11,06,9.50
2003,01,24,11,07,9.40
2003,01,24,11,08,9.40
2003,01,24,11,09,9.50
2003,01,24,11,10,9.50
2003,01,24,11,11,9.60
2003,01,24,11,12,9.50
2003,01,24,11,13,9.50
2003,01,24,11,14,9.50
2003,01,24,11,15,9.50
2003,01,24,11,16,9.50
2003,01,24,11,17,9.50
2003,01,24,11,18,9.50
2003,01,24,11,19,9.40
2003,01,24,11,20,9.50
2003,01,24,11,30,9.50
2003,01,24,12,00,9.90
2003,01,24,12,30,9.70
2003,01,24,13,00,10.10
2003,01,24,13,30,9.90
2003,01,24,14,00,9.70
2003,01,24,14,30,9.80
2003,01,24,15,00,9.60
2003,01,24,15,30,9.60
2003,01,24,16,00,9.60
2003,01,24,16,30,10.10
2003,01,24,17,00,9.90
2003,01,24,17,30,10.60
2003,01,24,18,00,10.10
2003,01,24,18,30,9.90
2003,01,24,19,00,9.90
2003,01,24,19,30,9.70
2003,01,24,20,00,9.40
2003,01,24,20,30,9.20
2003,01,24,21,00,9.20
2003,01,24,21,30,9.10
2003,01,24,22,00,9.20
2003,01,24,22,30,9.00
2003,01,24,23,00,8.60
2003,01,24,23,30,8.40
